No particular awareness of the weather is required.    There are no Weather-warnings


Meteo18 Weather Cam more information Meteo18 Weather Cam


Thunder radar more information blitzortung!


Rain radar more information rain snow radar


Visit our other weather sites:

Template documentation
and downloads

And another site



Weather Underground History page Text

Daily Summary for February 26, 2018 Units:  English    Metric   Both
« Previous Day
Next Day »
Daily Weekly Monthly Yearly Custom
  High: Low: Average:
Temperature: TemperatureC °F -5.4 °F -3.5 °F
Dew Point: DewpointC °F -14.3 °F -12.7 °F
Humidity: Humidity % 39 % 49 %
Wind Speed: WindSpeedKMH mph 1.4 mph 17.6 mph
Wind Gust: WindSpeedGustKMH mph - -
Wind:- - ENE
Pressure: PressurehPa in 1018.2 in -
Precipitation: 0.3 in    
Historical Graphs
 
 
Tabular Data for February 26, 2018
Time Temperature Dew Point Pressure Wind Wind Speed Wind Gust Humidity Rainfall Rate (Hourly)
TemperatureC °F DewpointC °F PressurehPa in Calm     Humidity % HourlyPrecipMM in
00:01 -2.6 °F -11.6 °F 1019.5 in North 6.4 mph 22.5 mph 50 % 0.0 in
00:07 -2.7 °F -11.7 °F 1019.5 in NNE 14.3 mph 20.9 mph 50 % 0.0 in
00:13 -2.7 °F -11.7 °F 1019.5 in North 19.5 mph 19.5 mph 50 % 0.0 in
00:19 -2.7 °F -11.7 °F 1019.5 in NNE 6.4 mph 19.3 mph 50 % 0.0 in
00:25 -2.8 °F -11.8 °F 1019.9 in NNE 19.5 mph 22.5 mph 50 % 0.0 in
00:31 -2.8 °F -12.3 °F 1019.9 in NNE 19.5 mph 27.4 mph 48 % 0.0 in
00:37 -2.8 °F -12.3 °F 1019.9 in NE 9.7 mph 27.4 mph 48 % 0.0 in
00:43 -2.8 °F -12.3 °F 1019.9 in NE 20.9 mph 27.4 mph 48 % 0.0 in
00:49 -2.8 °F -12.0 °F 1019.9 in NE 25.9 mph 29.0 mph 49 % 0.0 in
00:55 -2.9 °F -12.4 °F 1019.5 in NNE 17.7 mph 25.7 mph 48 % 0.0 in
01:01 -2.9 °F -12.6 °F 1019.5 in NE 22.7 mph 27.4 mph 47 % 0.0 in
01:07 -2.9 °F -12.4 °F 1019.5 in NNE 13.0 mph 25.7 mph 48 % 0.0 in
01:13 -2.9 °F -12.6 °F 1019.9 in NE 20.9 mph 30.6 mph 47 % 0.0 in
01:19 -2.9 °F -12.4 °F 1019.5 in NE 27.4 mph 29.0 mph 48 % 0.0 in
01:25 -3.0 °F -12.7 °F 1019.9 in NE 30.6 mph 30.6 mph 47 % 0.0 in
01:31 -3.1 °F -12.6 °F 1019.9 in NE 24.1 mph 24.1 mph 48 % 0.0 in
01:37 -3.1 °F -12.6 °F 1019.5 in North 4.7 mph 17.7 mph 48 % 0.0 in
01:43 -3.2 °F -12.7 °F 1019.5 in NE 13.0 mph 29.0 mph 48 % 0.0 in
01:49 -3.2 °F -12.9 °F 1019.5 in North 14.3 mph 25.7 mph 47 % 0.0 in
01:55 -3.2 °F -12.7 °F 1019.5 in NE 25.9 mph 27.4 mph 48 % 0.0 in
02:01 -3.3 °F -12.7 °F 1019.5 in NNE 11.1 mph 30.6 mph 48 % 0.0 in
02:08 -3.3 °F -12.7 °F 1019.5 in NE 7.9 mph 25.7 mph 48 % 0.0 in
02:14 -3.4 °F -12.6 °F 1019.5 in NE 9.7 mph 24.1 mph 49 % 0.0 in
02:19 -3.5 °F -12.7 °F 1019.5 in NNE 13.0 mph 24.1 mph 49 % 0.0 in
02:26 -3.5 °F -12.4 °F 1019.5 in NNE 20.9 mph 22.5 mph 50 % 0.0 in
02:32 -3.6 °F -12.3 °F 1019.5 in NNE 6.4 mph 14.5 mph 51 % 0.0 in
02:38 -3.7 °F -12.4 °F 1019.5 in NNE 11.1 mph 25.7 mph 51 % 0.0 in
02:44 -3.7 °F -12.6 °F 1019.5 in NE 4.7 mph 14.5 mph 50 % 0.0 in
02:50 -3.8 °F -12.5 °F 1019.5 in North 9.7 mph 22.5 mph 51 % 0.0 in
02:56 -3.8 °F -12.5 °F 1019.5 in NE 25.9 mph 25.9 mph 51 % 0.0 in
03:02 -3.8 °F -12.5 °F 1019.5 in NNE 11.1 mph 25.7 mph 51 % 0.0 in
03:08 -3.9 °F -12.6 °F 1019.2 in NNE 17.7 mph 22.5 mph 51 % 0.0 in
03:14 -3.9 °F -12.8 °F 1019.2 in NE 14.3 mph 24.1 mph 50 % 0.0 in
03:20 -3.9 °F -12.6 °F 1019.2 in NE 16.3 mph 29.0 mph 51 % 0.0 in
03:26 -4.1 °F -12.5 °F 1019.2 in NNE 14.3 mph 22.5 mph 52 % 0.0 in
03:32 -4.1 °F -12.5 °F 1019.5 in NNW 13.0 mph 24.1 mph 52 % 0.0 in
03:38 -4.1 °F -12.7 °F 1019.5 in NNE 7.9 mph 27.4 mph 51 % 0.0 in
03:44 -4.2 °F -12.4 °F 1019.2 in North 3.2 mph 22.5 mph 53 % 0.0 in
03:50 -4.3 °F -12.4 °F 1019.5 in NNW 4.7 mph 22.5 mph 53 % 0.0 in
03:56 -4.4 °F -12.5 °F 1019.5 in NW 3.2 mph 20.9 mph 53 % 0.0 in
04:02 -4.4 °F -12.3 °F 1019.5 in NE 4.7 mph 14.5 mph 54 % 0.0 in
04:08 -4.4 °F -12.5 °F 1019.5 in NE 6.4 mph 27.4 mph 53 % 0.0 in
04:14 -4.4 °F -12.3 °F 1019.5 in NNE 16.3 mph 25.7 mph 54 % 0.0 in
04:20 -4.5 °F -12.4 °F 1019.5 in NE 22.7 mph 22.7 mph 54 % 0.0 in
04:26 -4.6 °F -12.3 °F 1019.5 in WNW 9.7 mph 17.7 mph 55 % 0.0 in
04:32 -4.7 °F -12.1 °F 1019.5 in North 7.9 mph 14.5 mph 56 % 0.0 in
04:38 -4.7 °F -12.4 °F 1019.5 in NNE 6.4 mph 19.3 mph 55 % 0.0 in
04:44 -4.8 °F -12.5 °F 1019.5 in NNE 17.7 mph 20.9 mph 55 % 0.0 in
04:50 -4.8 °F -12.5 °F 1019.5 in NNE 9.7 mph 25.7 mph 55 % 0.0 in
04:56 -4.8 °F -12.5 °F 1019.5 in NE 20.9 mph 24.1 mph 55 % 0.0 in
05:02 -4.8 °F -12.2 °F 1019.5 in NNE 16.3 mph 20.9 mph 56 % 0.0 in
05:08 -4.8 °F -12.5 °F 1019.5 in NNW 7.9 mph 24.1 mph 55 % 0.0 in
05:14 -4.8 °F -12.5 °F 1019.5 in North 24.1 mph 25.7 mph 55 % 0.0 in
05:20 -4.9 °F -12.6 °F 1019.5 in NE 14.3 mph 19.3 mph 55 % 0.0 in
05:26 -4.9 °F -12.6 °F 1019.5 in North 6.4 mph 19.3 mph 55 % 0.0 in
05:32 -4.9 °F -12.3 °F 1019.5 in NE 9.7 mph 24.1 mph 56 % 0.0 in
05:38 -4.8 °F -12.2 °F 1019.5 in NNE 6.4 mph 20.9 mph 56 % 0.0 in
05:44 -4.7 °F -12.1 °F 1019.2 in NE 7.9 mph 17.7 mph 56 % 0.0 in
05:50 -4.7 °F -12.1 °F 1019.2 in NE 14.3 mph 22.5 mph 56 % 0.0 in
05:56 -4.7 °F -11.9 °F 1019.2 in NE 16.3 mph 24.1 mph 57 % 0.0 in
06:02 -4.7 °F -11.9 °F 1019.2 in NNE 13.0 mph 20.9 mph 57 % 0.0 in
06:08 -4.8 °F -12.0 °F 1019.2 in NW 13.0 mph 19.3 mph 57 % 0.0 in
06:14 -4.8 °F -12.0 °F 1019.5 in NE 4.7 mph 25.7 mph 57 % 0.0 in
06:20 -4.8 °F -12.0 °F 1019.5 in NNE 19.5 mph 20.9 mph 57 % 0.0 in
06:26 -4.8 °F -12.0 °F 1019.5 in NNE 13.0 mph 24.1 mph 57 % 0.0 in
06:32 -4.8 °F -12.0 °F 1019.2 in NE 16.3 mph 19.3 mph 57 % 0.0 in
06:38 -4.9 °F -12.1 °F 1019.5 in NNE 22.7 mph 32.2 mph 57 % 0.0 in
06:44 -4.9 °F -11.9 °F 1019.5 in North 6.4 mph 25.7 mph 58 % 0.0 in
06:50 -4.9 °F -11.9 °F 1019.2 in North 11.1 mph 25.7 mph 58 % 0.0 in
06:56 -5.0 °F -11.8 °F 1019.2 in NNE 4.7 mph 22.5 mph 59 % 0.0 in
07:02 -5.1 °F -11.9 °F 1019.2 in North 9.7 mph 14.5 mph 59 % 0.0 in
07:08 -5.1 °F -11.9 °F 1019.2 in NNE 7.9 mph 12.9 mph 59 % 0.0 in
07:14 -5.2 °F -12.0 °F 1019.2 in NNE 1.4 mph 19.3 mph 59 % 0.0 in
07:20 -5.1 °F -12.1 °F 1019.2 in NNW 11.1 mph 20.9 mph 58 % 0.0 in
07:26 -5.1 °F -12.1 °F 1019.2 in NNE 19.5 mph 22.5 mph 58 % 0.0 in
07:32 -5.0 °F -12.4 °F 1019.2 in NNE 19.5 mph 30.6 mph 56 % 0.0 in
07:38 -4.9 °F -12.3 °F 1019.2 in North 13.0 mph 27.4 mph 56 % 0.0 in
07:44 -5.0 °F -12.4 °F 1019.5 in NNE 20.9 mph 27.4 mph 56 % 0.0 in
07:50 -4.9 °F -12.3 °F 1019.5 in North 17.7 mph 29.0 mph 56 % 0.0 in
07:56 -4.9 °F -12.6 °F 1019.5 in NNE 22.7 mph 30.6 mph 55 % 0.0 in
08:02 -4.9 °F -12.6 °F 1019.5 in NE 22.7 mph 24.1 mph 55 % 0.0 in
08:08 -4.8 °F -12.7 °F 1019.5 in NNE 20.9 mph 37.0 mph 54 % 0.0 in
08:14 -4.8 °F -12.7 °F 1019.5 in NNE 27.4 mph 32.2 mph 54 % 0.0 in
08:20 -4.8 °F -12.7 °F 1019.5 in ENE 7.9 mph 29.0 mph 54 % 0.0 in
08:26 -4.7 °F -12.6 °F 1019.5 in NE 16.3 mph 27.4 mph 54 % 0.0 in
08:32 -4.7 °F -12.6 °F 1019.5 in NNE 38.6 mph 38.6 mph 54 % 0.0 in
08:38 -4.7 °F -12.6 °F 1019.5 in NE 22.7 mph 37.0 mph 54 % 0.0 in
08:44 -4.6 °F -12.3 °F 1019.5 in NE 9.7 mph 24.1 mph 55 % 0.0 in
08:50 -4.6 °F -12.5 °F 1019.5 in NE 11.1 mph 30.6 mph 54 % 0.0 in
08:56 -4.5 °F -12.2 °F 1019.5 in NE 14.3 mph 27.4 mph 55 % 0.0 in
09:02 -4.4 °F -12.3 °F 1019.5 in NNE 30.6 mph 32.2 mph 54 % 0.0 in
09:08 -4.4 °F -12.3 °F 1019.9 in NE 19.5 mph 37.0 mph 54 % 0.0 in
09:14 -4.5 °F -12.6 °F 1019.5 in NE 27.4 mph 40.2 mph 53 % 0.0 in
09:20 -4.4 °F -12.3 °F 1019.5 in NE 37.0 mph 45.1 mph 54 % 0.0 in
09:26 -4.4 °F -12.3 °F 1019.5 in NE 19.5 mph 35.4 mph 54 % 0.0 in
09:32 -4.3 °F -12.2 °F 1019.5 in NE 24.1 mph 27.4 mph 54 % 0.0 in
09:38 -4.2 °F -12.4 °F 1019.5 in NE 32.0 mph 41.8 mph 53 % 0.0 in
09:44 -4.3 °F -12.4 °F 1019.5 in NNE 24.1 mph 33.8 mph 53 % 0.0 in
09:50 -4.2 °F -12.6 °F 1019.5 in NNE 25.9 mph 37.0 mph 52 % 0.0 in
09:56 -4.2 °F -12.6 °F 1019.5 in NE 30.6 mph 43.4 mph 52 % 0.0 in
10:02 -4.1 °F -12.5 °F 1019.5 in NE 17.7 mph 33.8 mph 52 % 0.0 in
10:08 -4.1 °F -13.0 °F 1019.5 in NNE 22.7 mph 45.1 mph 50 % 0.0 in
10:14 -4.0 °F -12.9 °F 1019.5 in East 19.5 mph 40.2 mph 50 % 0.0 in
10:20 -3.8 °F -12.5 °F 1019.5 in East 6.4 mph 30.6 mph 51 % 0.0 in
10:26 -3.8 °F -13.0 °F 1019.5 in NNE 20.9 mph 43.4 mph 49 % 0.0 in
10:32 -3.7 °F -12.9 °F 1019.5 in NE 24.1 mph 43.4 mph 49 % 0.0 in
10:38 -3.7 °F -12.6 °F 1019.5 in NNE 19.5 mph 33.8 mph 50 % 0.0 in
10:44 -3.7 °F -13.1 °F 1019.5 in NE 30.6 mph 38.6 mph 48 % 0.0 in
10:50 -3.6 °F -12.8 °F 1019.5 in NE 27.4 mph 37.0 mph 49 % 0.0 in
10:56 -3.4 °F -12.8 °F 1019.5 in NE 22.7 mph 32.2 mph 48 % 0.0 in
11:02 -3.3 °F -12.7 °F 1019.5 in NNE 13.0 mph 38.6 mph 48 % 0.0 in
11:08 -3.3 °F -12.7 °F 1019.5 in ENE 28.8 mph 30.6 mph 48 % 0.0 in
11:14 -3.2 °F -12.9 °F 1019.5 in NNE 25.9 mph 37.0 mph 47 % 0.0 in
11:20 -3.3 °F -13.3 °F 1019.2 in North 19.5 mph 32.2 mph 46 % 0.0 in
11:26 -3.2 °F -13.2 °F 1019.2 in NNW 19.5 mph 32.2 mph 46 % 0.0 in
11:32 -3.2 °F -13.2 °F 1019.2 in NE 22.7 mph 38.6 mph 46 % 0.0 in
11:38 -3.2 °F -13.5 °F 1019.2 in NE 25.9 mph 43.4 mph 45 % 0.0 in
11:44 -2.8 °F -13.1 °F 1019.2 in NE 22.7 mph 35.4 mph 45 % 0.0 in
11:50 -2.9 °F -12.9 °F 1019.2 in East 22.7 mph 37.0 mph 46 % 0.0 in
11:56 -2.9 °F -13.5 °F 1019.5 in NE 30.6 mph 45.1 mph 44 % 0.0 in
12:02 -2.7 °F -13.3 °F 1019.5 in NE 9.7 mph 33.8 mph 44 % 0.0 in
12:08 -2.6 °F -13.5 °F 1019.2 in East 13.0 mph 33.8 mph 43 % 0.0 in
12:14 -2.4 °F -13.3 °F 1019.2 in ENE 13.0 mph 25.7 mph 43 % 0.0 in
12:20 -2.3 °F -13.8 °F 1019.2 in ENE 14.3 mph 29.0 mph 41 % 0.0 in
12:26 -2.5 °F -14.3 °F 1019.2 in East 13.0 mph 40.2 mph 40 % 0.0 in
12:32 -2.4 °F -13.9 °F 1019.5 in NNE 16.3 mph 37.0 mph 41 % 0.0 in
12:38 -2.4 °F -13.6 °F 1019.2 in NNE 22.7 mph 30.6 mph 42 % 0.3 in
12:44 -2.3 °F -13.8 °F 1019.2 in NNE 37.0 mph 41.8 mph 41 % 0.3 in
12:50 -2.5 °F -14.3 °F 1019.2 in North 24.1 mph 35.4 mph 40 % 0.3 in
13:02 -2.1 °F -13.3 °F 1019.2 in NW 20.9 mph 33.8 mph 42 % 0.3 in
13:08 -2.0 °F -13.2 °F 1019.2 in NE 13.0 mph 30.6 mph 42 % 0.3 in
13:14 -1.8 °F -13.3 °F 1019.2 in NE 24.1 mph 41.8 mph 41 % 0.3 in
13:20 -2.2 °F -14.3 °F 1019.2 in NNE 24.1 mph 45.1 mph 39 % 0.3 in
13:26 -2.2 °F -13.4 °F 1019.2 in NNE 27.4 mph 43.4 mph 42 % 0.3 in
13:33 -2.1 °F -13.6 °F 1019.2 in NE 27.4 mph 35.4 mph 41 % 0.3 in
13:39 -2.1 °F -13.6 °F 1019.2 in NNE 20.9 mph 37.0 mph 41 % 0.0 in
13:45 -1.8 °F -13.0 °F 1019.2 in NE 41.8 mph 41.8 mph 42 % 0.0 in
13:51 -2.0 °F -13.2 °F 1018.8 in NNE 22.7 mph 40.2 mph 42 % 0.0 in
13:57 -1.7 °F -12.4 °F 1019.2 in NNE 7.9 mph 29.0 mph 44 % 0.0 in
14:03 -1.7 °F -12.6 °F 1019.2 in East 6.4 mph 30.6 mph 43 % 0.0 in
14:09 -1.6 °F -12.6 °F 1019.2 in NE 13.0 mph 33.8 mph 43 % 0.0 in
14:15 -1.7 °F -12.6 °F 1019.2 in NE 35.2 mph 38.6 mph 43 % 0.0 in
14:21 -1.9 °F -12.8 °F 1018.8 in NE 32.0 mph 35.4 mph 43 % 0.0 in
14:27 -1.7 °F -12.1 °F 1019.2 in NE 24.1 mph 32.2 mph 45 % 0.0 in
14:33 -1.7 °F -12.4 °F 1019.2 in NE 20.9 mph 29.0 mph 44 % 0.0 in
14:39 -1.7 °F -12.6 °F 1018.8 in NNE 24.1 mph 32.2 mph 43 % 0.0 in
14:45 -1.7 °F -12.4 °F 1018.8 in NE 13.0 mph 25.7 mph 44 % 0.0 in
14:51 -1.7 °F -12.4 °F 1018.8 in ENE 37.0 mph 37.0 mph 44 % 0.0 in
14:57 -1.7 °F -12.1 °F 1018.8 in NNE 28.8 mph 29.0 mph 45 % 0.0 in
15:03 -1.6 °F -12.3 °F 1018.8 in East 16.3 mph 30.6 mph 44 % 0.0 in
15:09 -1.6 °F -12.3 °F 1018.8 in NE 14.3 mph 30.6 mph 44 % 0.0 in
15:15 -1.6 °F -12.3 °F 1018.8 in North 19.5 mph 32.2 mph 44 % 0.0 in
15:21 -1.7 °F -12.9 °F 1018.8 in North 17.7 mph 35.4 mph 42 % 0.0 in
15:27 -1.7 °F -12.9 °F 1018.8 in NE 13.0 mph 33.8 mph 42 % 0.0 in
15:33 -1.7 °F -12.9 °F 1018.8 in NNE 25.9 mph 33.8 mph 42 % 0.0 in
15:39 -1.8 °F -13.6 °F 1018.8 in NE 17.7 mph 33.8 mph 40 % 0.0 in
15:45 -1.6 °F -12.8 °F 1018.5 in NE 25.9 mph 27.4 mph 42 % 0.0 in
15:51 -1.6 °F -13.1 °F 1018.5 in NNE 30.6 mph 38.6 mph 41 % 0.0 in
15:57 -1.5 °F -12.5 °F 1018.5 in NE 19.5 mph 27.4 mph 43 % 0.0 in
16:03 -1.7 °F -12.9 °F 1018.5 in ENE 25.9 mph 38.6 mph 42 % 0.0 in
16:09 -1.8 °F -13.0 °F 1018.5 in NNE 16.3 mph 32.2 mph 42 % 0.0 in
16:15 -1.6 °F -12.3 °F 1018.5 in NNE 4.7 mph 30.6 mph 44 % 0.0 in
16:21 -1.6 °F -12.6 °F 1018.2 in North 9.7 mph 40.2 mph 43 % 0.0 in
16:27 -1.8 °F -13.3 °F 1018.5 in NNE 27.4 mph 41.8 mph 41 % 0.0 in
16:33 -1.8 °F -13.0 °F 1018.5 in NNE 16.3 mph 30.6 mph 42 % 0.0 in
16:39 -1.8 °F -12.7 °F 1018.5 in ENE 14.3 mph 32.2 mph 43 % 0.0 in
16:45 -1.9 °F -12.8 °F 1018.5 in NNE 25.9 mph 33.8 mph 43 % 0.0 in
16:51 -1.9 °F -12.8 °F 1018.5 in North 24.1 mph 33.8 mph 43 % 0.0 in
16:57 -1.9 °F -12.8 °F 1018.2 in NNW 27.4 mph 41.8 mph 43 % 0.0 in
17:03 -1.9 °F -12.8 °F 1018.5 in ENE 6.4 mph 19.3 mph 43 % 0.0 in
17:09 -2.0 °F -13.2 °F 1018.5 in ENE 13.0 mph 33.8 mph 42 % 0.0 in
17:15 -2.1 °F -13.0 °F 1018.2 in North 17.7 mph 33.8 mph 43 % 0.0 in
17:21 -2.2 °F -13.1 °F 1018.5 in NE 7.9 mph 32.2 mph 43 % 0.0 in
17:27 -2.2 °F -13.1 °F 1018.5 in NE 16.3 mph 27.4 mph 43 % 0.0 in
17:33 -2.2 °F -13.1 °F 1018.5 in NE 6.4 mph 25.7 mph 43 % 0.0 in
17:39 -2.2 °F -12.8 °F 1018.5 in ENE 25.9 mph 37.0 mph 44 % 0.0 in
17:45 -2.3 °F -12.9 °F 1018.5 in ENE 24.1 mph 32.2 mph 44 % 0.0 in
17:51 -2.4 °F -12.7 °F 1018.5 in NNE 14.3 mph 27.4 mph 45 % 0.0 in
17:57 -2.4 °F -13.0 °F 1018.5 in NNE 25.9 mph 35.4 mph 44 % 0.0 in
18:03 -2.6 °F -12.9 °F 1018.5 in NE 25.9 mph 27.4 mph 45 % 0.0 in
18:09 -2.7 °F -13.3 °F 1018.5 in NE 13.0 mph 37.0 mph 44 % 0.0 in
18:15 -2.8 °F -13.1 °F 1018.5 in North 7.9 mph 19.3 mph 45 % 0.0 in
18:21 -2.8 °F -13.4 °F 1018.5 in NNE 14.3 mph 35.4 mph 44 % 0.0 in
18:27 -2.9 °F -13.5 °F 1018.5 in ENE 14.3 mph 40.2 mph 44 % 0.0 in
18:33 -3.0 °F -13.5 °F 1018.5 in NE 22.7 mph 41.8 mph 44 % 0.0 in
18:39 -3.1 °F -13.6 °F 1018.8 in NE 25.9 mph 29.0 mph 44 % 0.0 in
18:45 -3.1 °F -13.6 °F 1018.8 in NNE 14.3 mph 32.2 mph 44 % 0.0 in
18:51 -3.2 °F -13.5 °F 1018.8 in NNE 9.7 mph 19.3 mph 45 % 0.0 in
18:57 -3.2 °F -13.5 °F 1018.8 in NE 19.5 mph 24.1 mph 45 % 0.0 in
19:03 -3.2 °F -13.5 °F 1018.8 in NE 24.1 mph 33.8 mph 45 % 0.0 in
19:09 -3.3 °F -13.5 °F 1018.8 in NE 14.3 mph 30.6 mph 45 % 0.0 in
19:15 -3.3 °F -13.5 °F 1018.8 in NE 16.3 mph 24.1 mph 45 % 0.0 in
19:21 -3.4 °F -13.6 °F 1018.8 in NNE 19.5 mph 24.1 mph 45 % 0.0 in
19:27 -3.4 °F -13.6 °F 1018.8 in NNE 24.1 mph 25.7 mph 45 % 0.0 in
19:33 -3.4 °F -13.4 °F 1018.8 in NNE 28.8 mph 32.2 mph 46 % 0.0 in
19:39 -3.4 °F -13.4 °F 1018.8 in NNE 22.7 mph 27.4 mph 46 % 0.0 in
19:45 -3.5 °F -13.5 °F 1018.8 in NNE 24.1 mph 32.2 mph 46 % 0.0 in
19:51 -3.6 °F -13.5 °F 1018.8 in ENE 11.1 mph 25.7 mph 46 % 0.0 in
19:57 -3.6 °F -13.5 °F 1018.8 in NNE 17.7 mph 25.7 mph 46 % 0.0 in
20:03 -3.6 °F -13.5 °F 1018.8 in NNE 17.7 mph 30.6 mph 46 % 0.0 in
20:09 -3.7 °F -13.4 °F 1018.8 in NNE 9.7 mph 20.9 mph 47 % 0.0 in
20:15 -3.8 °F -13.2 °F 1018.8 in NE 14.3 mph 19.3 mph 48 % 0.0 in
20:21 -3.8 °F -13.5 °F 1018.8 in NNW 4.7 mph 19.3 mph 47 % 0.0 in
20:27 -3.8 °F -13.2 °F 1018.8 in NNE 19.5 mph 33.8 mph 48 % 0.0 in
20:33 -3.8 °F -13.0 °F 1018.8 in NNE 27.4 mph 35.4 mph 49 % 0.0 in
20:39 -3.9 °F -13.6 °F 1018.8 in NE 22.7 mph 37.0 mph 47 % 0.0 in
20:45 -4.0 °F -13.4 °F 1018.8 in NNE 20.9 mph 32.2 mph 48 % 0.0 in
20:51 -4.1 °F -13.5 °F 1018.8 in NNE 20.9 mph 43.4 mph 48 % 0.0 in
20:57 -4.1 °F -13.7 °F 1018.8 in NNE 27.4 mph 40.2 mph 47 % 0.0 in
21:03 -4.1 °F -13.5 °F 1018.8 in NNE 25.9 mph 40.2 mph 48 % 0.0 in
21:09 -4.2 °F -13.3 °F 1018.8 in NE 37.0 mph 40.2 mph 49 % 0.0 in
21:15 -4.3 °F -13.4 °F 1018.8 in NNE 20.9 mph 30.6 mph 49 % 0.0 in
21:21 -4.3 °F -13.2 °F 1018.8 in NE 9.7 mph 35.4 mph 50 % 0.0 in
21:27 -4.4 °F -13.3 °F 1018.8 in ENE 25.9 mph 25.9 mph 50 % 0.0 in
21:33 -4.5 °F -13.1 °F 1018.8 in East 11.1 mph 25.7 mph 51 % 0.0 in
21:39 -4.5 °F -13.1 °F 1019.2 in North 17.7 mph 25.7 mph 51 % 0.0 in
21:48 -4.5 °F -13.4 °F 1019.2 in North 14.3 mph 29.0 mph 50 % 0.0 in
21:55 -4.6 °F -13.2 °F 1019.2 in NE 13.0 mph 30.6 mph 51 % 0.0 in
22:01 -4.7 °F -13.1 °F 1019.2 in NE 11.1 mph 24.1 mph 52 % 0.0 in
22:07 -4.7 °F -13.3 °F 1019.2 in NNE 24.1 mph 29.0 mph 51 % 0.0 in
22:13 -4.7 °F -13.1 °F 1019.2 in North 11.1 mph 24.1 mph 52 % 0.0 in
22:19 -4.8 °F -12.9 °F 1019.2 in NE 14.3 mph 19.3 mph 53 % 0.0 in
22:25 -4.8 °F -12.9 °F 1019.2 in ENE 7.9 mph 19.3 mph 53 % 0.0 in
22:31 -4.9 °F -13.0 °F 1019.2 in NE 9.7 mph 20.9 mph 53 % 0.0 in
22:37 -4.9 °F -13.0 °F 1018.8 in NNE 13.0 mph 25.7 mph 53 % 0.0 in
22:43 -4.9 °F -12.8 °F 1018.8 in NE 24.1 mph 27.4 mph 54 % 0.0 in
22:49 -4.9 °F -12.8 °F 1018.8 in ENE 20.9 mph 29.0 mph 54 % 0.0 in
22:55 -5.0 °F -12.9 °F 1018.8 in NNE 20.9 mph 25.7 mph 54 % 0.0 in
23:01 -5.1 °F -12.7 °F 1018.8 in North 4.7 mph 22.5 mph 55 % 0.0 in
23:07 -5.2 °F -12.6 °F 1018.8 in NE 11.1 mph 24.1 mph 56 % 0.0 in
23:13 -5.2 °F -12.6 °F 1018.8 in NE 20.9 mph 20.9 mph 56 % 0.0 in
23:19 -5.2 °F -12.6 °F 1018.8 in NNE 14.3 mph 20.9 mph 56 % 0.0 in
23:25 -5.3 °F -12.7 °F 1018.8 in North 14.3 mph 35.4 mph 56 % 0.0 in
23:31 -5.3 °F -12.7 °F 1018.8 in NE 19.5 mph 27.4 mph 56 % 0.0 in
23:37 -5.3 °F -12.7 °F 1018.8 in NNE 22.7 mph 32.2 mph 56 % 0.0 in
23:43 -5.4 °F -12.6 °F 1018.8 in NNE 19.5 mph 29.0 mph 57 % 0.0 in
23:49 -5.4 °F -12.6 °F 1018.8 in NE 14.3 mph 27.4 mph 57 % 0.0 in
23:55 -5.4 °F -12.4 °F 1018.8 in NNE 6.4 mph 24.1 mph 58 % 0.0 in
Meteo18
Compliments of Weather Underground - 4 mb

Script developed by  Jim McMurry - jmcmurry@mwt.net Adapted for the template by  Wim van der Kuil - Leuven-Template.eu

You find our weather info also at:

European Weather Network

Weather Underground

Equipment we use:

Weather-station
Davis Vue

Weather-program
Meteobridge

Weather-server
Raspberry PI 2 B+

Provider
1 and 1

Davis Vue

Meteobridge

Raspberry PI 2 B+

1 and 1